Wind_Speed
28 30 30 31 29 33 29 5 2 8 16 2 2 2 4 3 1 6 1 3 11 13 14 11 7 9 4 19 13 11 6 3 3 8 8 12 11 6 8 3 4 4 2 7
29 29 30 32 28 30 21 3 4 9 1 1 1 1 2 1 2 5 2 5 9 15 11 8 6 11 6 9 10 12 7 3 2 3 2 6 4 6 9 10 4 12 6 6
26 28 28 32 26 28 10 3 2 4 3 6 4 3 2 3 3 8 4 6 16 15 6 8 9 8 3 6 3 8 13 4 4 2 4 2 3 6 7 6 5 13 19 25
24 26 27 28 24 21 9 6 2 3 2 3 4 1 2 6 2 4 7 4 11 12 6 11 10 10 8 3 5 4 4 3 5 10 13 9 10 10 13 15 20 12 23 23
23 24 25 25 25 20 11 6 4 6 4 1 1 3 3 6 3 7 3 7 9 2 5 6 10 11 6 5 5 5 3 2 4 5 12 12 12 16 16 19 19 16 19 24
20 22 22 21 21 23 9 14 11 5 7 4 3 3 7 5 2 9 9 9 6 9 8 11 12 11 8 8 8 8 6 3 1 3 7 9 8 9 9 4 7 8 9 17
19 20 20 15 17 17 16 12 10 4 3 5 2 3 3 10 6 3 3 3 4 3 4 8 7 7 5 3 3 7 5 5 2 4 8 4 2 6 6 7 8 8 13 14
19 18 18 16 16 16 17 9 3 2 2 4 3 3 2 11 10 9 8 10 10 7 4 1 4 2 3 7 7 8 5 2 2 2 5 9 3 4 1 1 3 4 8 12
22 18 16 15 18 17 15 7 4 4 4 2 7 3 5 2 4 3 4 7 4 3 1 1 2 2 4 4 4 6 6 5 0 3 3 3 2 4 4 7 2 4 0 8
20 19 17 14 17 18 13 4 9 2 4 6 3 1 1 2 1 2 5 4 2 2 1 1 1 2 4 2 7 4 4 2 6 4 3 6 7 7 8 1 4 4 2 7
18 18 19 17 15 18 13 6 3 7 4 9 2 3 4 3 4 1 4 3 1 1 2 1 2 2 3 2 5 7 6 6 3 3 3 7 1 4 0 2 3 7 3 2
18 18 16 18 16 14 13 6 6 10 7 5 6 7 5 3 1 1 8 2 3 3 1 0 2 3 2 4 3 7 5 6 5 6 6 8 5 8 4 5 5 6 3 3
19 18 17 16 13 12 12 10 8 5 5 6 4 5 7 7 7 6 3 1 5 5 3 2 2 4 2 2 4 3 4 11 3 4 5 9 5 8 6 6 5 7 6 7
20 19 19 16 14 13 12 10 5 6 4 2 2 3 5 7 9 10 9 4 7 6 6 4 2 3 4 3 4 3 1 1 4 6 9 4 7 7 4 5 4 4 1 10
20 20 20 16 13 11 11 10 8 7 4 3 6 9 10 8 8 8 10 11 11 7 4 3 3 3 2 3 3 4 6 5 4 3 4 1 2 3 3 2 1 2 5 10
22 22 18 15 12 9 4 2 3 6 6 2 2 3 5 5 6 6 7 10 11 8 5 3 4 11 4 3 3 7 15 19 17 0 1 2 2 1 1 2 4 5 9 12
24 20 15 13 8 10 9 3 10 11 7 3 3 3 2 4 3 3 4 7 3 6 5 5 4 3 2 3 5 7 16 7 6 8 5 3 5 3 4 5 8 10 12 13
21 10 11 4 5 10 12 4 14 10 5 3 1 3 3 2 1 1 3 2 5 5 3 4 3 3 7 4 8 15 17 12 6 9 8 7 7 8 8 8 9 12 14 15
6 5 3 6 3 6 4 7 5 8 6 2 2 1 2 2 2 3 4 6 2 3 3 2 1 3 5 5 7 14 3 2 3 4 7 7 10 11 12 13 13 14 17 17
1 0 1 1 3 3 6 4 4 5 5 4 2 3 2 3 1 2 2 3 1 2 2 1 3 3 17 19 13 8 6 4 7 5 4 9 12 14 16 15 15 16 20 20
1 1 2 1 3 3 3 3 2 3 2 4 3 3 2 2 1 1 2 1 1 1 1 2 2 3 2 8 10 11 10 13 12 7 8 8 10 18 19 17 17 17 19 21
5 3 3 1 1 1 1 2 2 1 2 1 2 1 3 3 2 1 1 1 1 1 3 1 2 2 11 15 12 11 7 3 5 7 4 4 8 15 17 18 18 17 18 22
2 2 2 2 0 2 3 5 2 1 2 3 3 1 2 2 2 2 0 1 2 1 1 2 3 8 19 16 15 10 6 1 2 3 2 8 7 12 17 19 18 19 22 25
2 2 2 2 2 2 1 2 1 2 1 3 3 3 1 1 1 1 2 1 0 1 1 3 2 19 21 16 15 11 8 5 2 3 4 9 12 15 18 20 20 23 27 28
2 2 3 3 1 1 1 2 1 2 2 3 2 3 1 1 1 1 1 1 2 2 2 2 15 21 16 16 15 11 7 5 3 2 6 11 14 18 20 21 23 24 26 27
3 4 2 4 1 2 1 1 1 2 4 5 2 1 0 2 2 2 4 1 2 1 2 15 20 19 16 16 14 12 8 5 4 3 5 9 14 17 20 22 23 25 26 28
3 4 6 3 1 1 3 2 1 4 2 1 1 3 3 1 1 2 3 2 2 9 13 18 18 19 18 16 13 11 9 5 4 4 5 9 12 17 21 24 25 27 28 28
Wind_Direction
349 349 347 345 348 349 349 350 345 142 141 77 318 295 82 278 3 202 133 128 136 151 161 152 161 172 253 186 165 193 178 125 190 210 246 210 203 205 195 157 244 245 291 266
349 351 351 348 355 353 349 25 46 146 311 92 289 221 353 244 287 334 151 137 148 143 144 147 190 138 97 151 167 161 154 174 193 152 360 204 207 231 203 226 323 244 270 263
350 353 355 350 358 1 28 45 41 79 274 274 262 139 305 130 330 25 59 111 131 140 148 133 137 110 97 142 147 89 160 156 217 218 80 116 210 235 230 203 248 253 243 271
353 355 355 358 3 10 26 34 32 359 249 294 220 93 202 110 95 26 6 65 138 139 109 120 132 110 121 160 109 122 140 220 239 262 270 270 252 238 222 222 239 246 270 278
354 355 357 4 3 16 36 36 358 330 290 132 47 102 7 117 97 5 62 125 110 108 116 43 154 146 164 169 155 159 137 259 358 279 253 256 258 256 251 248 251 252 266 275
354 355 358 7 8 14 18 4 347 314 306 192 259 134 194 173 110 28 38 97 96 79 44 55 47 74 160 130 156 177 167 200 243 273 316 308 269 245 226 201 227 250 280 286
352 350 351 358 2 7 0 342 339 325 328 323 343 352 351 147 117 130 74 65 86 65 120 103 85 87 83 133 163 181 174 191 186 273 288 219 42 129 164 204 234 251 288 313
339 336 344 348 352 350 352 345 314 294 275 290 304 258 356 97 105 98 91 58 100 113 60 147 143 158 204 222 214 202 220 129 282 274 300 285 133 137 355 237 329 250 299 319
349 345 343 348 354 347 348 28 23 336 319 218 323 348 304 170 136 126 92 79 120 67 65 134 160 179 240 135 136 203 209 151 247 7 327 283 94 133 103 106 264 221 274 321
345 344 342 345 344 343 347 8 27 317 297 295 281 260 283 214 92 112 119 136 137 109 99 167 232 277 299 239 171 166 156 175 223 215 260 282 266 133 123 24 276 352 15 333
339 342 344 337 334 338 348 324 332 3 285 282 236 258 322 222 290 247 129 119 140 106 189 227 202 248 250 279 126 167 168 169 187 168 234 257 312 130 88 224 256 280 303 323
334 334 339 332 330 333 337 314 280 313 246 268 248 273 260 280 72 62 170 77 121 122 128 269 306 274 266 243 268 146 176 199 175 199 214 253 204 217 313 281 304 300 269 226
328 328 325 322 315 314 312 299 316 345 281 304 247 245 231 238 243 228 211 172 163 179 176 141 269 267 323 260 244 277 252 194 234 171 259 243 360 34 9 332 303 287 260 209
323 322 316 316 307 299 298 285 242 301 323 289 209 249 245 246 237 229 228 202 183 185 191 206 228 253 329 292 308 276 223 30 213 249 272 320 64 12 336 327 328 317 300 184
319 318 310 311 308 299 286 265 230 219 237 323 296 290 262 252 256 251 244 237 226 200 178 193 235 224 207 233 301 249 208 199 202 257 101 62 139 336 345 279 42 44 111 144
320 313 311 299 288 284 296 183 201 175 191 306 278 291 252 252 267 257 273 243 223 195 197 216 224 242 245 244 224 239 251 226 236 236 191 95 157 82 300 129 129 129 136 156
320 316 310 294 262 218 214 205 164 173 186 239 282 286 254 238 256 251 228 217 226 230 199 220 233 248 238 281 241 289 305 311 249 227 230 173 186 198 172 142 134 131 134 148
328 322 328 302 188 198 228 200 178 175 204 258 271 276 299 212 198 271 212 183 200 215 258 233 205 190 209 250 246 269 276 280 297 221 221 238 205 189 166 152 145 138 135 144
334 339 25 78 137 181 177 163 176 196 207 267 199 236 296 200 238 239 191 193 207 234 218 229 230 180 226 241 278 286 342 311 257 196 214 219 205 189 172 165 156 150 146 146
127 17 3 209 216 204 154 145 156 176 209 241 247 222 274 199 162 299 279 173 275 217 203 263 215 257 256 269 282 286 277 275 261 228 211 205 204 189 178 172 164 159 147 149
230 331 237 227 225 216 172 148 177 164 245 222 239 238 310 268 255 274 236 227 202 259 136 246 264 268 62 346 326 304 283 258 258 264 261 280 236 192 177 170 165 161 157 160
324 316 319 301 182 212 167 166 118 192 237 24 318 299 251 283 244 240 238 244 330 272 322 298 262 282 353 342 335 334 325 263 218 226 251 208 198 189 185 171 165 162 165 160
0 335 320 340 313 241 206 177 180 216 40 1 353 305 269 272 252 255 243 238 227 286 232 250 247 11 350 346 349 353 8 103 200 189 188 187 184 188 183 174 172 169 168 160
294 329 280 211 190 247 33 19 67 127 121 331 298 269 260 287 344 298 271 249 344 259 260 243 20 346 348 354 352 356 358 7 348 199 180 189 189 182 183 189 177 175 171 167
265 212 238 214 1 48 350 310 29 15 335 352 289 280 254 299 303 140 327 278 257 229 257 7 345 343 346 351 352 354 352 346 313 247 195 191 194 192 185 186 184 182 176 172
236 240 244 208 217 165 146 326 21 6 351 325 257 269 243 253 197 170 218 291 243 26 334 330 333 341 347 344 347 347 341 320 292 252 214 201 198 195 189 185 184 181 182 177
234 251 229 206 142 119 142 159 63 294 346 281 333 225 209 63 205 239 191 211 54 342 335 340 345 343 343 346 348 345 339 325 296 259 217 204 198 194 190 183 181 182 181 180
Height
1450 1444 1440 1435 1426 1420 1412 1408 1407 1410 1412 1417 1415 1406 1403 1404 1402 1397 1393 1394 1397 1405 1410 1417 1419 1424 1423 1428 1431 1438 1443 1450 1457 1456 1450 1451 1451 1454 1459 1478 1474 1465 1465 1424
1452 1443 1438 1433 1426 1420 1414 1411 1412 1415 1415 1415 1415 1408 1408 1408 1406 1399 1396 1395 1398 1403 1411 1420 1416 1420 1426 1427 1431 1437 1443 1453 1455 1448 1451 1446 1451 1449 1450 1455 1460 1457 1457 1422
1450 1445 1438 1434 1427 1420 1416 1415 1415 1418 1418 1416 1411 1410 1409 1409 1406 1400 1397 1396 1399 1406 1409 1410 1416 1426 1430 1431 1432 1435 1441 1445 1454 1452 1440 1447 1456 1447 1447 1454 1457 1437 1429 1412
1450 1445 1440 1435 1429 1423 1420 1418 1420 1420 1415 1414 1410 1411 1411 1410 1406 1404 1402 1403 1403 1407 1412 1414 1417 1427 1433 1435 1437 1438 1442 1450 1446 1442 1438 1438 1439 1439 1441 1445 1439 1442 1415 1414
1451 1446 1441 1437 1432 1427 1424 1423 1423 1420 1416 1414 1411 1411 1413 1410 1408 1407 1405 1405 1406 1407 1411 1412 1417 1423 1428 1433 1439 1441 1443 1449 1444 1447 1431 1430 1432 1428 1427 1425 1424 1425 1418 1405
1450 1447 1442 1439 1436 1430 1429 1428 1426 1423 1416 1416 1412 1412 1413 1410 1410 1410 1407 1410 1413 1415 1418 1418 1419 1420 1424 1427 1434 1438 1443 1446 1447 1435 1425 1423 1423 1411 1411 1414 1415 1416 1410 1400
1450 1447 1443 1440 1437 1435 1433 1431 1429 1427 1421 1416 1410 1409 1407 1410 1413 1413 1414 1415 1415 1423 1422 1423 1424 1426 1428 1430 1432 1433 1438 1443 1443 1444 1429 1426 1405 1399 1404 1408 1407 1408 1406 1397
1449 1446 1443 1440 1438 1435 1432 1430 1429 1429 1426 1420 1416 1413 1411 1414 1415 1416 1418 1420 1422 1423 1424 1424 1426 1429 1430 1428 1431 1433 1435 1439 1438 1435 1426 1413 1402 1402 1405 1406 1406 1406 1404 1397
1447 1444 1442 1440 1437 1434 1431 1428 1427 1427 1426 1419 1418 1415 1415 1416 1417 1420 1423 1424 1425 1425 1426 1426 1427 1428 1417 1425 1429 1431 1435 1439 1443 1441 1437 1425 1401 1401 1403 1404 1407 1401 1401 1396
1447 1444 1441 1439 1436 1433 1431 1428 1427 1426 1424 1417 1418 1418 1417 1418 1417 1419 1422 1425 1427 1427 1429 1427 1430 1423 1414 1418 1420 1429 1434 1438 1437 1440 1439 1421 1399 1400 1402 1406 1406 1397 1397 1396
1444 1442 1439 1437 1435 1432 1429 1428 1427 1428 1425 1419 1418 1419 1418 1418 1419 1420 1424 1427 1427 1429 1429 1429 1428 1427 1417 1414 1415 1422 1427 1433 1434 1437 1437 1430 1396 1398 1402 1399 1395 1395 1395 1396
1442 1440 1438 1436 1432 1431 1429 1428 1427 1426 1425 1420 1418 1418 1418 1420 1420 1421 1421 1423 1424 1426 1429 1430 1427 1425 1417 1413 1413 1408 1416 1414 1417 1419 1414 1397 1395 1394 1394 1393 1394 1394 1394 1395
1441 1437 1435 1434 1432 1430 1429 1425 1425 1424 1423 1419 1418 1417 1418 1419 1419 1420 1422 1422 1423 1425 1426 1427 1427 1424 1418 1415 1410 1405 1403 1403 1406 1406 1394 1395 1395 1394 1393 1393 1392 1392 1392 1393
1437 1434 1431 1429 1428 1426 1425 1423 1423 1424 1422 1421 1416 1416 1416 1417 1418 1419 1420 1420 1422 1424 1425 1426 1425 1424 1418 1413 1410 1408 1403 1399 1400 1399 1394 1393 1393 1394 1393 1392 1391 1391 1389 1391
1432 1430 1426 1424 1423 1423 1422 1420 1421 1422 1426 1422 1417 1415 1414 1414 1415 1415 1416 1418 1419 1421 1422 1423 1422 1420 1420 1414 1412 1407 1397 1398 1400 1395 1391 1392 1395 1394 1393 1392 1391 1390 1390 1391
1426 1425 1421 1420 1419 1420 1420 1419 1420 1420 1422 1423 1418 1414 1412 1412 1412 1412 1413 1414 1415 1417 1417 1416 1416 1414 1415 1409 1403 1392 1389 1389 1390 1392 1391 1392 1392 1392 1392 1392 1391 1391 1391 1393
1421 1418 1416 1414 1414 1416 1417 1417 1417 1419 1421 1421 1417 1412 1411 1410 1411 1411 1411 1411 1412 1413 1412 1412 1411 1411 1410 1405 1397 1389 1387 1389 1389 1389 1390 1391 1390 1391 1392 1392 1392 1392 1393 1394
1415 1414 1412 1410 1411 1414 1414 1415 1416 1418 1420 1419 1416 1413 1411 1409 1409 1409 1408 1409 1410 1410 1409 1408 1407 1407 1406 1399 1390 1388 1387 1387 1387 1386 1387 1387 1388 1389 1389 1391 1392 1392 1394 1396
1412 1412 1412 1410 1411 1412 1412 1414 1415 1416 1421 1416 1416 1415 1412 1409 1408 1407 1407 1408 1409 1409 1406 1405 1405 1400 1399 1390 1388 1387 1385 1385 1385 1385 1385 1386 1387 1387 1389 1390 1392 1392 1394 1396
1412 1412 1411 1411 1412 1412 1412 1414 1414 1415 1415 1414 1412 1410 1409 1410 1408 1406 1406 1405 1404 1404 1402 1402 1401 1394 1389 1386 1387 1387 1385 1385 1385 1384 1384 1385 1385 1386 1388 1390 1392 1393 1393 1397
1412 1411 1411 1411 1410 1409 1410 1411 1411 1413 1413 1411 1409 1408 1409 1408 1408 1406 1406 1404 1405 1401 1403 1401 1395 1389 1387 1386 1384 1383 1381 1381 1382 1381 1381 1381 1382 1384 1387 1389 1392 1394 1395 1398
1413 1412 1411 1410 1410 1409 1410 1409 1412 1412 1410 1409 1409 1409 1409 1408 1407 1406 1405 1404 1405 1399 1401 1400 1396 1389 1388 1386 1384 1380 1378 1378 1378 1378 1379 1380 1382 1384 1386 1390 1392 1394 1398 1400
1413 1413 1411 1410 1411 1409 1407 1405 1408 1408 1409 1410 1409 1409 1408 1407 1406 1405 1405 1404 1402 1404 1401 1397 1394 1392 1389 1385 1383 1380 1378 1377 1377 1378 1379 1380 1383 1385 1388 1391 1393 1396 1399 1403
1414 1413 1411 1410 1407 1407 1406 1406 1407 1409 1409 1409 1409 1408 1407 1406 1405 1404 1403 1403 1403 1400 1398 1395 1395 1393 1389 1385 1383 1381 1379 1378 1378 1379 1381 1381 1383 1385 1388 1391 1394 1396 1399 1404
1414 1414 1409 1408 1408 1408 1408 1408 1408 1409 1409 1408 1408 1407 1407 1406 1406 1405 1406 1403 1398 1397 1397 1397 1397 1394 1391 1388 1385 1383 1381 1381 1381 1381 1381 1382 1383 1385 1387 1390 1393 1397 1401 1405
1413 1411 1408 1407 1408 1408 1409 1409 1409 1409 1408 1408 1408 1407 1406 1405 1403 1405 1400 1401 1396 1400 1403 1401 1397 1394 1391 1389 1387 1385 1383 1382 1382 1382 1382 1382 1383 1385 1388 1390 1393 1398 1402 1405
1409 1407 1405 1405 1406 1407 1408 1408 1408 1408 1409 1408 1407 1404 1399 1404 1403 1400 1397 1398 1402 1404 1402 1400 1398 1394 1391 1389 1387 1385 1384 1383 1382 1382 1382 1383 1384 1385 1387 1390 1394 1398 1402 1406